[[{"header":{"parameterUnit":"m.s-1","parameterCategory":1,"la1":30.2991,"la2":30.254,"lo1":-89.0895,"lo2":-89.0444,"dy":0.0017,"dx":0.0017,"nx":28,"ny":28,"refTime":"2023-10-24T03:00:00:Z","depth":0,"parameterNumber":2,"parameterNumberName":"U-component_of_WINDS"},"data":[0,0,0,0,0,0,0,0,0,0,0,0,0,0,0,0,0,0,0,0,0,0,0,0,0,0,0,0,0,0,0,0,0,0,0,0,0,0,0,0,0,0,0,0,0,0,0,0,0,0,0,0,0,0,0,0,0,0,-6.4491,-6.4493,0,-6.4636,-6.4637,-6.4639,-6.4568,-6.4565,-6.4561,-6.4557,-6.4701,-6.4708,-6.4715,0,0,0,0,0,0,0,0,0,0,0,0,0,-6.4153,-6.4159,-6.4491,-6.4493,-6.4495,-6.4635,-6.4637,-6.4639,-6.4569,-6.4564,-6.456,-6.4556,-6.4698,-6.4707,-6.4716,0,0,0,0,0,0,0,0,0,0,0,0,0,-6.4299,-6.4161,-6.4491,-6.4477,-6.4477,-6.4635,-6.4637,-6.464,-6.457,-6.4564,-6.4559,-6.4554,-6.4695,-6.4706,-6.4717,-6.4896,0,0,-6.475,-6.4755,0,0,0,0,0,0,0,0,-6.429,-6.4311,-6.4477,-6.4478,-6.4479,-6.4578,-6.457,-6.4725,-6.4571,-6.4535,-6.4557,-6.4551,-6.4664,-6.4677,-6.4716,-6.4902,-6.4908,-6.4751,-6.4758,-6.4762,-6.4765,0,0,0,0,0,0,0,-6.428,-6.4304,-6.4548,-6.448,-6.4481,-6.4463,-6.4477,-6.4599,-6.4629,-6.4537,-6.4533,-6.4551,-6.4663,-6.4706,-6.4719,-6.491,-6.4751,-6.476,-6.4767,-6.4771,-6.5251,-6.5257,0,0,0,0,0,0,-6.4271,-6.4297,-6.4544,-6.4552,-6.4369,-6.4473,-6.449,-6.4552,-6.4627,-6.4633,-6.4555,-6.4547,-6.469,-6.4707,-6.4724,-6.4937,-6.4762,-6.4772,-6.4779,-6.5245,-6.5253,-6.5259,0,0,0,0,0,0,-6.4264,-6.4294,-6.4538,-6.4423,-6.4453,-6.4485,-6.4556,-6.4558,-6.46,-6.4641,-6.4645,-6.4594,-6.4686,-6.4709,-6.4854,-6.4941,-6.4777,-6.4787,-6.5238,-6.5247,-6.5256,-6.5366,0,0,0,0,0,0,-6.4255,-6.4292,-6.436,-6.4426,-6.446,-6.4666,-6.4561,-6.4565,-6.462,-6.461,-6.4678,-6.4684,-6.4684,-6.4838,-6.4865,-6.4953,-6.4796,-6.523,-6.5242,-6.5253,-6.5355,-6.5378,-6.5398,0,0,0,0,0,-6.4243,-6.4384,-6.4364,-6.4394,-6.4546,-6.4671,-6.469,-6.4688,-6.4627,-6.4695,-6.4723,-6.4682,-6.4929,-6.4854,-6.4883,-6.4976,-6.5224,-6.5239,-6.5252,-6.5345,-6.5374,-6.5398,0,0,0,0,0,0,-6.4325,-6.4392,-6.437,-6.4537,-6.46,-6.4659,-6.4745,-6.4719,-6.4798,-6.4785,-6.4779,-6.4795,-6.4946,-6.4976,-6.4891,-6.5154,-6.5067,-6.5088,-6.5127,-6.5155,-6.5176,-6.5163,-6.4805,0,0,0,0,0,-6.4364,-6.4461,-6.4514,-6.4656,-6.4689,-6.4712,-6.4767,-6.4761,-6.4824,-6.4849,-6.4886,-6.4948,-6.504,-6.51,-6.5186,-6.5361,-6.5374,-6.544,-6.5462,-6.5479,-6.5496,-6.559,-6.562,-6.5305,-6.5305,-6.5305,0,0,-6.4442,-6.4491,-6.4552,-6.4674,-6.4721,-6.4821,-6.4734,-6.4843,-6.4917,-6.4865,-6.5004,-6.5035,-6.5104,-6.5264,-6.5337,-6.5294,-6.5587,-6.5497,-6.5511,-6.5518,-6.5607,-6.5637,-6.5664,-6.5315,-6.5313,-6.5311,0,0,-6.4635,-6.4683,-6.4806,-6.4857,-6.4931,-6.4947,-6.4977,-6.5042,-6.506,-6.5201,-6.5164,-6.5253,-6.5411,-6.5461,-6.5507,-6.5726,-6.5691,-6.5755,-6.5866,-6.5958,-6.5983,-6.6005,-6.608,-6.6108,-6.5772,-6.5773,-6.5773,0,-6.4722,-6.4872,-6.4873,-6.4986,-6.504,-6.5002,-6.5126,-6.5175,-6.5273,-6.5311,-6.5263,-6.5462,-6.5506,-6.5678,-6.5732,-6.5772,-6.5805,-6.5744,-6.598,-6.6002,-6.6022,-6.6094,-6.6123,-6.5779,-6.5779,-6.5778,-6.5777,0,-6.4975,-6.508,-6.5171,-6.5269,-6.5335,-6.5453,-6.5471,-6.5537,-6.5528,-6.5548,-6.5692,-6.5745,-6.5841,-6.5883,-6.5873,-6.6055,-6.6026,-6.598,-6.5891,-6.6059,-6.6126,-6.6154,-6.579,-6.5787,-6.5785,-6.5783,0,0,-6.5218,-6.5319,-6.5351,-6.5396,-6.5477,-6.5558,-6.5676,-6.5773,-6.5829,-6.59,-6.5996,-6.6134,-6.6093,-6.6146,-6.6143,-6.6224,-6.6392,-6.6168,-6.6169,-6.6205,-6.6594,-6.6625,-6.6657,-6.6372,-6.6378,-6.6382,-6.6587,0,-6.5414,-6.562,-6.5626,-6.5814,-6.5911,-6.5879,-6.5981,-6.6042,-6.6067,-6.6152,-6.6178,-6.6275,-6.6214,-6.6246,-6.6326,-6.6355,-6.647,-6.6341,-6.646,-6.6464,-6.6439,-6.6693,-6.6725,-6.6916,-6.6614,-6.6618,-6.6621,0,-6.5669,-6.575,-6.5948,-6.6018,-6.6059,-6.6151,-6.6241,-6.6324,-6.6393,-6.6405,-6.6467,-6.6453,-6.6573,-6.6486,-6.665,-6.6562,-6.6613,-6.6635,-6.6643,-6.6649,-6.6549,-6.6703,-6.6977,-6.7004,-6.6664,-6.666,-6.6657,0,-6.5822,-6.5982,-6.6121,-6.6161,-6.6246,-6.6311,-6.635,-6.6414,-6.6472,-6.6552,-6.659,-6.6683,-6.6732,-6.6804,-6.6815,-6.6751,-6.698,-6.6893,-6.6991,-6.6991,-6.7036,-6.7032,-6.7318,-6.7076,-6.7076,-6.7075,-6.7075,0,-6.6038,-6.616,-6.6191,-6.6276,-6.6412,-6.642,-6.6554,-6.6587,-6.6646,-6.6736,-6.6716,-6.6801,-6.6813,-6.6902,-6.6912,-6.7046,-6.707,-6.7081,-6.7082,-6.7081,-6.7079,-6.7109,-6.7095,-6.7083,-6.7081,-6.708,-6.7078,0,-6.6229,-6.6256,-6.6405,-6.6476,-6.6496,-6.6593,-6.6653,-6.6735,-6.6759,-6.6874,-6.6902,-6.694,-6.7043,-6.7064,-6.7186,-6.7193,-6.7352,-6.7341,-6.7328,-6.7325,-6.7421,-6.741,-6.7733,-6.7774,-6.7509,-6.7512,-6.7514,0,-6.6362,-6.6456,-6.6538,-6.6598,-6.664,-6.6738,-6.6799,-6.6812,-6.6875,-6.6964,-6.7035,-6.7137,-6.7219,-6.7386,-6.7424,-6.7518,-6.7506,-6.7614,-6.752,-6.7516,-6.7504,-6.7497,-6.7505,-6.7629,-6.7632,-6.7634,-6.7636,0,-6.6595,-6.6605,-6.6694,-6.6789,-6.6863,-6.6938,-6.7009,-6.706,-6.7082,-6.7156,-6.7263,-6.7327,-6.7454,-6.7555,-6.765,-6.7688,-6.7666,-6.7667,-6.7694,-6.7691,-6.7678,-6.7684,-6.7372,-6.7658,-6.7655,-6.7654,-6.7653,-6.7652,-6.6759,-6.6841,-6.6912,-6.7012,-6.7069,-6.7137,-6.7217,-6.7254,-6.7343,-6.7448,-6.7451,-6.7568,-6.7638,-6.7763,-6.7809,-6.79,-6.7866,-6.7906,-6.7915,-6.7923,-6.7931,-6.7669,-6.7918,-6.7917,-6.7917,-6.7916,-6.7916,0,-6.6988,-6.7034,-6.7127,-6.7228,-6.7308,-6.7285,-6.7364,-6.7431,-6.7534,-6.7602,-6.7685,-6.7809,-6.7908,-6.7956,-6.8055,-6.8118,-6.8111,-6.8143,-6.8136,-6.8145,-6.7957,-6.7922,-6.8148,-6.8148,-6.8148,-6.8148,-6.8148,-6.8148,-6.7116,-6.7252,-6.7272,-6.7437,-6.7482,-6.7597,-6.7644,-6.7707,-6.7761,-6.7901,-6.7984,-6.8016,-6.8076,-6.818,-6.827,-6.8282,-6.8317,-6.8354,-6.8361,-6.8182,-6.8159,-6.8136,-6.8103,-6.8363,-6.8363,-6.8541,-6.8542,-6.8544]},{"header":{"parameterUnit":"m.s-1","parameterCategory":1,"la1":30.2991,"la2":30.254,"lo1":-89.0895,"lo2":-89.0444,"dy":0.0017,"dx":0.0017,"nx":28,"ny":28,"refTime":"2023-10-24T03:00:00:Z","depth":0,"parameterNumber":3,"parameterNumberName":"V-component_of_WINDS"},"data":[0,0,0,0,0,0,0,0,0,0,0,0,0,0,0,0,0,0,0,0,0,0,0,0,0,0,0,0,0,0,0,0,0,0,0,0,0,0,0,0,0,0,0,0,0,0,0,0,0,0,0,0,0,0,0,0,0,0,2.4554,2.4554,0,2.4505,2.4505,2.4504,2.4418,2.4416,2.4414,2.4413,2.4363,2.4363,2.4363,0,0,0,0,0,0,0,0,0,0,0,0,0,2.4574,2.4574,2.4554,2.4554,2.4553,2.4506,2.4505,2.4504,2.4418,2.4416,2.4414,2.4412,2.4363,2.4363,2.4363,0,0,0,0,0,0,0,0,0,0,0,0,0,2.4549,2.4574,2.4554,2.4504,2.4499,2.4506,2.4505,2.4504,2.4418,2.4416,2.4413,2.4411,2.4363,2.4363,2.4363,2.4415,0,0,2.4364,2.4364,0,0,0,0,0,0,0,0,2.4551,2.4549,2.4512,2.4508,2.4502,2.4465,2.4493,2.4474,2.4419,2.4449,2.4413,2.441,2.4399,2.4396,2.4392,2.4412,2.441,2.4364,2.4365,2.4365,2.4365,0,0,0,0,0,0,0,2.4553,2.455,2.4535,2.4512,2.4506,2.4485,2.4478,2.4489,2.4438,2.4446,2.444,2.4435,2.4396,2.4392,2.4391,2.441,2.4364,2.4365,2.4365,2.4365,2.4471,2.4473,0,0,0,0,0,0,2.4562,2.4552,2.4536,2.4533,2.4521,2.4486,2.4479,2.4479,2.4438,2.4429,2.4437,2.4431,2.4393,2.439,2.4389,2.4446,2.4365,2.4365,2.4365,2.4468,2.4471,2.4474,0,0,0,0,0,0,2.4562,2.4561,2.4538,2.4541,2.4537,2.4489,2.4489,2.448,2.4476,2.4431,2.4422,2.4443,2.4391,2.4388,2.4409,2.4443,2.4365,2.4365,2.4465,2.4469,2.4473,2.4561,0,0,0,0,0,0,2.4563,2.4562,2.458,2.4542,2.4537,2.4559,2.4492,2.4481,2.4477,2.4469,2.4434,2.4426,2.4389,2.4409,2.441,2.4442,2.4366,2.4462,2.4467,2.4471,2.4555,2.4568,2.4579,0,0,0,0,0,2.4564,2.4607,2.4581,2.458,2.4559,2.4562,2.4558,2.4514,2.448,2.4498,2.447,2.4427,2.444,2.4412,2.4412,2.4445,2.4459,2.4465,2.4471,2.455,2.4565,2.4579,0,0,0,0,0,0,2.4649,2.4601,2.4572,2.4604,2.4588,2.4547,2.4568,2.4532,2.4525,2.4518,2.4464,2.4457,2.4485,2.4467,2.4437,2.4493,2.4443,2.4449,2.4503,2.4517,2.4529,2.4532,2.4366,0,0,0,0,0,2.4672,2.4678,2.4635,2.4667,2.4661,2.4617,2.4616,2.4584,2.4565,2.4557,2.453,2.4514,2.4514,2.4515,2.4513,2.4553,2.4545,2.4576,2.4588,2.4598,2.4603,2.4624,2.4637,2.4493,2.4493,2.4493,0,0,2.4718,2.4692,2.4699,2.4684,2.4667,2.4675,2.4611,2.4622,2.4627,2.4559,2.4577,2.4557,2.4535,2.4567,2.4579,2.4553,2.4642,2.4605,2.4614,2.4613,2.4631,2.4645,2.4657,2.4497,2.4497,2.4496,0,0,2.4806,2.4788,2.4812,2.4798,2.4774,2.4745,2.4751,2.4717,2.4701,2.4719,2.4668,2.4674,2.4676,2.4662,2.4656,2.4742,2.4703,2.4744,2.4804,2.4825,2.4836,2.4846,2.4877,2.4888,2.4749,2.475,2.475,0,2.4866,2.4875,2.4829,2.4844,2.4839,2.4779,2.4804,2.4792,2.4769,2.4767,2.4739,2.474,2.4721,2.4749,2.477,2.4767,2.4773,2.4746,2.4838,2.4848,2.4856,2.4885,2.4896,2.4755,2.4754,2.4753,2.4753,0,2.4951,2.4958,2.4981,2.4961,2.4959,2.4979,2.4936,2.494,2.491,2.4884,2.4903,2.4879,2.4871,2.4876,2.4845,2.49,2.4884,2.4848,2.4796,2.4876,2.4901,2.4912,2.4762,2.476,2.4758,2.4757,0,0,2.5087,2.5044,2.5053,2.5043,2.5014,2.502,2.5038,2.5031,2.5035,2.5022,2.5036,2.504,2.5007,2.5,2.4968,2.4987,2.5057,2.4948,2.4947,2.4968,2.5115,2.5142,2.5155,2.5032,2.5034,2.5035,2.5117,0,2.5168,2.5195,2.5155,2.5192,2.5199,2.5144,2.5159,2.5144,2.5122,2.5125,2.51,2.5103,2.5059,2.5055,2.5071,2.5045,2.5085,2.5039,2.5044,2.5044,2.5049,2.5168,2.5196,2.5274,2.5127,2.5129,2.513,0,2.5264,2.5257,2.5294,2.5265,2.5266,2.5281,2.5272,2.5276,2.5258,2.524,2.5234,2.5197,2.5213,2.5165,2.5187,2.5157,2.5157,2.5145,2.5147,2.5144,2.509,2.5168,2.5298,2.5309,2.5145,2.5144,2.5143,0,2.5359,2.5359,2.5381,2.5375,2.5342,2.5353,2.534,2.532,2.5319,2.5312,2.531,2.5306,2.5303,2.53,2.5263,2.5232,2.529,2.5239,2.5276,2.5277,2.5288,2.5288,2.5419,2.5292,2.5292,2.5291,2.5291,0,2.5452,2.5477,2.5424,2.5437,2.5464,2.542,2.5448,2.5429,2.5412,2.5421,2.5374,2.5385,2.5336,2.5341,2.5313,2.5335,2.5335,2.5321,2.5313,2.5324,2.5326,2.5322,2.5315,2.5294,2.5294,2.5293,2.5293,0,2.5561,2.5527,2.5547,2.5515,2.5507,2.5529,2.5501,2.5512,2.5488,2.5501,2.5502,2.5463,2.5467,2.5431,2.5428,2.5409,2.5445,2.5428,2.5451,2.5445,2.5484,2.548,2.5616,2.5631,2.5495,2.5497,2.5498,0,2.5622,2.564,2.561,2.5613,2.5602,2.5608,2.5607,2.5565,2.5566,2.5548,2.5563,2.5563,2.5561,2.557,2.5542,2.554,2.5522,2.557,2.5521,2.5533,2.5522,2.5521,2.5522,2.5579,2.5581,2.5582,2.5584,0,2.5733,2.5716,2.5716,2.5711,2.5711,2.5705,2.5696,2.5702,2.5656,2.566,2.5664,2.5663,2.5661,2.5662,2.5655,2.5641,2.5605,2.56,2.5608,2.5619,2.5631,2.5624,2.5477,2.5596,2.5595,2.5594,2.5593,2.5593,2.5819,2.5832,2.5814,2.5816,2.5806,2.5799,2.5808,2.5786,2.5789,2.5783,2.5759,2.5768,2.5752,2.5739,2.5729,2.5736,2.5713,2.5725,2.5727,2.5731,2.5738,2.5632,2.5735,2.5734,2.5734,2.5733,2.5733,0,2.5926,2.5913,2.5915,2.5905,2.5907,2.5874,2.5863,2.5868,2.5876,2.5864,2.5863,2.5869,2.587,2.5844,2.5842,2.5853,2.5836,2.5854,2.5852,2.5849,2.5759,2.5751,2.5867,2.5867,2.5867,2.5867,2.5867,2.5867,2.5983,2.6004,2.5985,2.6002,2.5988,2.5996,2.5993,2.5987,2.5977,2.5985,2.5986,2.597,2.5952,2.5949,2.595,2.5942,2.5943,2.5966,2.5953,2.5869,2.5855,2.5843,2.5836,2.5967,2.5968,2.6043,2.6044,2.6044]}]]